Flag for Canada Weather past 2 weeks in Québec, Quebec, Canada

Now
70 °F

Broken clouds.


Feels Like: 70 °F
Forecast: N/A
Wind: 10 mph from Northwest

Location: Quebec Weather Station

Current Time: Aug 27, 2015 at 6:08:59 PM

Latest Report: Aug 27, 2015 at 5:00 PM


Visibility: 30 mi

Pressure: 29.93 "Hg

Humidity: 60%

Dew point: 55 °F

Location of QuébecLocation

Historic Weather in Québec — Graph

°F

Québec temperature yesterday

Maximum temperature yesterday: 73 °F (at 2:00 PM)
Minimum temperature yesterday: 59 °F (at 11:00 PM)
Average temperature yesterday: 66 °F

Past Weeks' High & Low Weather Summary

 TemperatureHumidityPressure
High88 °F (Aug 20, 2:00 PM)100% (Aug 13, 6:00 AM)30.16 "Hg (Aug 13, 6:00 AM)
Low55 °F (Aug 14, 6:00 AM)40% (Aug 20, 3:00 PM)29.75 "Hg (Aug 12, 4:00 PM)
Average69 °F81%29.97 "Hg
* Reported Aug 12 4:00 PM — Aug 27 4:00 PM, Québec, Weather by CustomWeather, © 2015

Note: Actual official high and low records may vary slightly from our data, if they occured in-between our weather recording intervals... More about our weather records

Advertising

Québec weather history for previous 24 hours

 ConditionsComfort  
Time TempWeatherWind HumidityBarometerVisibility
4:00 PM
Thu, Aug 27
72 °FScattered showers. Broken clouds.12 mph53%29.92 "Hg30 mi
3:00 PM70 °FSprinkles. Broken clouds.12 mph60%29.91 "Hg30 mi
2:00 PM72 °FBroken clouds.12 mph53%29.91 "Hg30 mi
1:00 PM68 °FSprinkles. Broken clouds.6 mph78%29.91 "Hg30 mi
12:00 PM70 °FPartly sunny.13 mph64%29.92 "Hg30 mi
11:00 AM66 °FBroken clouds.7 mph83%29.93 "Hg20 mi
10:00 AM63 °FSprinkles. Broken clouds.3 mph88%29.94 "Hg12 mi
9:00 AM63 °FPartly sunny.8 mph88%29.93 "Hg8 mi
8:00 AM61 °FLow clouds.7 mph94%29.93 "Hg15 mi
7:00 AM59 °FSprinkles. Low clouds.6 mph94%29.92 "Hg15 mi
6:00 AM59 °FPassing clouds.3 mph94%29.90 "Hg15 mi
5:00 AM57 °FPassing clouds.No wind94%29.90 "Hg15 mi
4:00 AM57 °FPassing clouds.2 mph94%29.90 "Hg15 mi
3:00 AM55 °FPassing clouds.2 mph94%29.90 "Hg15 mi
2:00 AM57 °FPassing clouds.3 mph94%29.91 "Hg15 mi
1:00 AM57 °FPassing clouds.No wind94%29.91 "Hg15 mi
12:00 AM57 °FPassing clouds.2 mph94%29.91 "Hg15 mi
11:00 PM
Wed, Aug 26
59 °FPassing clouds.2 mph88%29.92 "Hg15 mi
10:00 PM61 °FPassing clouds.5 mph88%29.92 "Hg15 mi
9:00 PM63 °FPassing clouds.2 mph83%29.91 "Hg15 mi
8:00 PM66 °FPassing clouds.3 mph78%29.90 "Hg30 mi
7:00 PM68 °FMild.7 mph73%29.90 "Hg30 mi
6:00 PM72 °FPassing clouds.8 mph61%29.90 "Hg30 mi
Weather by CustomWeather, © 2015

See weather overviewHow to use our weather pages